Vorticity
nan nan nan nan nan nan nan nan nan nan nan nan nan nan nan nan nan nan nan nan nan nan nan nan nan nan nan nan nan nan nan nan nan nan nan nan nan nan nan nan nan nan nan
nan 6 6 7 8 8 8 8 7 7 8 8 7 7 7 7 7 6 6 9 14 12 12 7 6 6 5 4 5 7 8 7 6 6 5 5 7 8 7 6 6 7 nan
nan 7 6 7 8 9 8 6 7 8 8 8 9 7 8 8 7 7 7 7 10 15 15 10 7 6 7 6 6 6 6 7 8 7 6 6 6 6 7 7 6 6 nan
nan 6 6 7 8 8 7 8 7 6 7 7 8 8 8 8 8 8 7 7 8 12 14 13 12 8 9 9 8 5 4 4 6 7 6 6 6 6 7 6 6 6 nan
nan 6 7 8 8 7 7 7 7 8 7 7 7 8 8 8 8 8 8 8 8 7 11 13 11 12 11 9 9 7 5 4 4 5 7 6 6 5 6 5 5 5 nan
nan 6 8 9 7 6 7 7 8 6 8 9 9 8 7 7 8 8 9 9 9 8 7 9 10 14 13 9 10 9 7 5 6 6 6 6 5 6 6 6 6 5 nan
nan 6 7 8 8 8 8 7 7 7 7 8 7 10 10 10 7 7 8 9 9 9 9 9 9 11 14 14 11 11 7 6 5 7 8 6 5 8 7 7 5 5 nan
nan 7 7 7 7 8 9 9 5 6 10 7 3 9 10 10 12 10 7 10 9 8 9 11 11 8 8 11 15 14 10 9 7 8 7 7 6 6 7 7 6 6 nan
nan 8 6 7 8 7 8 9 8 5 7 8 6 4 9 10 10 13 10 9 10 8 10 9 9 8 7 9 12 13 10 10 11 8 7 7 7 5 6 6 6 6 nan
nan 7 7 8 7 7 8 8 8 6 6 8 7 6 8 11 7 8 13 12 10 9 7 8 9 9 7 8 11 12 9 8 11 11 9 8 6 5 6 6 7 7 nan
nan 10 9 8 7 8 9 9 8 7 5 7 7 8 8 6 9 9 8 11 10 11 9 9 8 8 9 7 9 12 10 8 7 11 12 10 8 6 6 7 6 7 nan
nan 11 8 7 8 8 8 8 8 7 6 6 7 7 8 7 9 7 7 9 12 11 11 9 9 8 8 9 11 12 10 7 6 6 9 12 12 11 9 7 8 6 nan
nan 11 9 8 7 9 9 9 8 8 9 8 8 6 7 6 8 9 8 7 9 10 12 12 10 9 9 10 11 12 11 8 7 7 7 7 10 11 11 10 10 9 nan
nan 10 9 7 7 8 8 7 8 10 10 10 9 7 7 8 8 9 8 7 7 9 9 11 12 9 9 11 13 10 7 13 8 7 7 7 8 9 9 10 11 11 nan
nan 12 13 10 9 9 8 6 7 10 9 9 9 8 7 8 9 10 10 9 7 8 9 8 11 11 7 8 10 10 11 13 11 9 8 8 8 8 9 9 9 10 nan
nan 11 10 10 9 9 9 7 8 11 8 7 10 9 7 9 9 10 10 11 10 9 9 7 10 12 9 5 9 11 11 12 13 9 8 9 9 10 10 10 9 9 nan
nan 10 10 10 11 9 9 8 9 10 9 7 8 9 8 8 8 9 9 10 11 8 8 9 13 11 10 9 8 10 11 9 13 16 10 8 10 11 10 10 10 11 nan
nan 12 11 10 10 11 10 9 8 9 9 8 8 8 8 9 9 8 9 8 7 8 9 11 9 12 12 13 15 10 9 10 13 16 15 12 10 10 12 13 12 13 nan
nan 11 11 10 10 10 9 10 9 9 8 9 9 9 9 8 7 8 10 9 8 7 6 7 9 10 12 11 13 13 12 9 11 13 15 16 16 19 19 19 17 17 nan
nan 17 9 11 12 11 9 9 10 8 9 10 10 10 9 9 9 7 8 8 7 8 8 6 6 7 8 9 9 11 8 9 8 6 11 15 13 13 14 16 18 19 nan
nan 22 28 19 15 14 11 12 9 9 9 9 10 10 10 11 10 6 7 10 9 7 9 10 8 8 7 9 9 7 9 7 7 8 7 7 5 6 6 7 13 11 nan
nan 11 16 18 20 11 15 24 14 10 10 9 10 10 11 12 12 11 13 17 14 13 10 10 11 12 11 7 12 11 8 8 10 9 8 8 9 10 9 11 13 11 nan
nan 10 10 10 12 3 17 27 19 17 14 15 13 12 9 12 13 10 12 11 9 15 20 16 12 12 13 13 10 12 10 10 11 10 8 8 10 10 11 13 11 9 nan
nan 10 9 11 10 5 10 19 28 19 12 12 13 20 21 14 13 12 7 4 5 8 16 20 19 17 15 17 14 13 11 7 8 10 10 11 9 8 9 11 8 9 nan
nan 11 9 11 13 7 8 21 22 15 11 8 9 11 18 16 16 16 8 6 6 6 11 12 10 9 10 14 21 17 11 7 8 9 9 12 11 8 9 9 8 7 nan
nan nan nan nan nan nan nan nan nan nan nan nan nan nan nan nan nan nan nan nan nan nan nan nan nan nan nan nan nan nan nan nan nan nan nan nan nan nan nan nan nan nan nan
CAPE
470 88 56 65 39 0 0 1 0 0 0 0 0 0 0 0 0 0 0 40 130 471 664 517 249 115 17 27 46 45 40 38 25 24 20 33 38 35 36 27 25 24 24
421 148 19 6 1 1 117 28 0 0 0 0 0 0 0 0 0 0 0 0 0 141 338 499 257 134 16 2 44 56 54 53 38 18 34 39 36 33 22 13 30 20 16
416 195 85 5 0 0 0 0 0 0 0 0 0 0 0 0 0 0 0 0 0 1 121 265 329 257 109 17 48 61 57 61 50 38 50 48 31 32 18 35 21 13 10
227 109 155 26 0 0 0 0 0 1 1 0 0 0 0 0 0 0 0 0 0 4 8 121 134 143 164 131 45 38 42 57 47 34 45 33 32 33 30 33 18 12 9
176 230 221 61 0 0 0 0 0 0 1 1 0 0 0 0 0 0 0 0 0 3 23 20 43 54 87 145 145 48 51 34 33 44 45 32 33 35 42 26 15 12 8
148 134 109 13 12 34 14 1 1 1 0 0 1 1 0 0 0 0 0 1 15 45 21 25 6 38 56 91 149 104 65 36 28 55 45 28 30 39 30 27 13 5 4
199 107 93 12 35 81 43 0 1 1 1 0 1 2 1 0 4 5 4 11 45 45 18 27 36 6 11 27 106 124 81 46 46 36 49 50 45 48 34 36 15 5 4
258 207 143 49 57 94 85 39 41 4 9 2 5 3 15 2 10 2 14 31 28 15 1 5 11 0 0 14 45 88 94 85 50 35 58 60 44 34 39 36 28 11 5
387 321 161 99 80 134 174 98 69 46 22 0 7 18 6 4 3 11 6 11 18 2 1 4 0 0 0 16 32 46 52 58 69 73 77 70 51 38 35 35 35 23 13
548 379 187 83 105 118 200 128 96 81 30 0 2 0 0 0 2 1 7 8 11 1 1 2 0 0 0 9 29 38 33 30 25 59 72 80 53 38 34 38 48 33 21
225 269 130 56 82 87 116 97 98 81 57 39 0 2 5 0 0 0 1 9 20 14 2 0 0 0 0 13 21 15 8 2 0 4 33 52 60 51 35 43 46 43 25
65 72 77 55 47 58 82 110 69 39 15 17 0 1 3 16 5 0 1 1 4 1 1 0 1 0 0 8 11 5 0 0 0 0 6 35 40 50 42 32 32 30 30
117 66 58 69 59 62 80 64 35 12 2 11 0 0 0 0 0 0 3 10 1 1 1 1 0 0 0 3 2 0 0 0 0 0 0 0 14 28 35 36 50 87 93
165 128 38 95 82 51 12 1 0 0 0 0 0 0 0 0 0 0 6 9 1 1 1 0 1 0 0 0 0 0 0 0 0 0 0 0 0 0 14 18 27 60 98
6 5 65 80 34 21 0 0 0 0 0 0 0 0 0 0 0 0 0 1 0 0 1 0 0 0 0 0 0 0 0 0 0 0 0 0 0 0 0 0 3 0 36
50 40 34 59 22 7 0 0 0 0 0 0 0 0 0 1 0 0 0 0 1 0 6 0 0 0 2 2 0 8 0 0 0 0 0 0 0 0 0 0 0 0 4
0 8 29 30 23 0 1 0 0 0 0 0 0 1 1 1 1 0 0 0 0 0 0 0 0 0 0 0 0 1 0 0 0 0 0 0 0 0 0 0 0 0 0
0 0 0 24 1 1 0 0 0 0 0 1 1 1 1 0 0 0 0 0 1 0 0 0 0 0 0 0 0 0 0 0 0 0 0 0 0 0 0 0 0 0 0
0 0 0 14 1 0 0 0 0 0 0 0 0 1 0 0 0 1 1 1 0 0 0 0 0 0 0 0 0 0 0 0 0 0 0 1 0 0 0 0 0 0 0
2 0 2 7 10 1 0 1 0 0 0 0 0 0 1 1 1 1 1 1 1 1 0 0 0 0 0 0 0 2 0 0 0 0 0 0 0 0 0 0 0 0 0
3 1 3 1 5 2 1 1 0 0 0 0 0 1 1 1 0 0 0 1 1 1 1 1 0 0 0 0 0 0 0 0 0 1 2 3 1 1 1 1 2 3 3
1 2 3 4 3 1 1 1 0 1 1 2 1 5 3 0 0 0 0 0 0 1 1 1 1 0 0 0 0 0 0 0 0 0 1 2 1 1 1 1 1 2 2
3 1 1 1 3 2 1 5 1 9 1 0 8 1 1 0 0 0 1 2 1 2 1 0 0 0 0 0 0 0 0 0 0 0 0 1 0 0 0 2 3 4 3
2 2 1 1 1 2 0 0 0 0 1 0 0 0 0 1 1 0 0 0 0 0 0 0 1 1 1 0 0 0 0 0 0 0 0 0 0 0 0 1 6 5 3
1 1 2 1 0 0 1 1 0 1 1 0 0 0 0 0 1 1 0 0 0 0 1 1 1 1 1 0 0 0 1 0 1 0 0 0 0 0 0 1 0 4 2
1 0 0 0 2 0 1 2 0 0 0 0 0 0 0 0 0 1 0 0 0 0 0 0 0 0 0 0 0 0 0 0 0 0 0 0 0 0 0 0 0 0 2